Location: *
(45.9500°N, 9.0833°E)
Time: 18:33:01
(UTC+00:00)

USA 307 - Pass Details

Date: 03 March 2021
Orbit: 567 x 577 km, 54.0° (Epoch: 13 April)

Event Time Altitude Azimuth Distance (km) Brightness Sun altitude
Rises 18:16:23 0° 281° (W) 2,785 8.4 -11.8°
Reaches altitude 10° 18:18:53 10° 293° (WNW) 1,885 6.8 -12.2°
Maximum altitude 18:22:38 28° 354° (N) 1,085 4.4 -12.9°
Enters shadow 18:25:53 12° 50° (NE) 1,724 4.9 -13.4°
